Time,TemperatureF,DewpointF,PressureIn,WindDirection,WindDirectionDegrees,WindSpeedMPH,WindSpeedGustMPH,Humidity,HourlyPrecipIn,Conditions,Clouds,dailyrainin,SoftwareType,DateUTC
2013-04-25 00:01:00,26.8,18.7,29.98,SSE,158,3.1,3.5,71,0.00,CLR,,0.00,WeatherDisplay:10.37,2013-04-25 06:01:00,
2013-04-25 00:06:00,26.8,19.0,29.98,ESE,112,0.6,5.3,72,0.00,CLR,,0.00,WeatherDisplay:10.37,2013-04-25 06:06:00,
2013-04-25 00:11:00,26.8,19.0,29.98,SSE,158,3.7,5.8,72,0.00,CLR,,0.00,WeatherDisplay:10.37,2013-04-25 06:11:00,
2013-04-25 00:16:00,26.8,18.7,29.97,SSW,202,3.6,4.7,71,0.00,CLR,,0.00,WeatherDisplay:10.37,2013-04-25 06:16:00,
2013-04-25 00:21:00,26.8,18.7,29.97,SSE,158,3.1,4.6,71,0.00,CLR,,0.00,WeatherDisplay:10.37,2013-04-25 06:21:00,
2013-04-25 00:26:00,26.6,18.8,29.97,SE,135,1.5,1.7,72,0.00,CLR,,0.00,WeatherDisplay:10.37,2013-04-25 06:26:00,
2013-04-25 00:31:00,26.4,18.9,29.97,SSE,158,4.4,4.6,73,0.00,CLR,,0.00,WeatherDisplay:10.37,2013-04-25 06:31:00,
2013-04-25 00:36:00,26.4,18.9,29.97,SE,135,4.5,5.8,73,0.00,CLR,,0.00,WeatherDisplay:10.37,2013-04-25 06:36:00,
2013-04-25 00:41:00,26.4,18.6,29.97,SSE,158,6.1,6.9,72,0.00,CLR,,0.00,WeatherDisplay:10.37,2013-04-25 06:41:00,
2013-04-25 00:46:00,26.8,18.7,29.97,SSE,158,4.8,5.8,71,0.00,CLR,,0.00,WeatherDisplay:10.37,2013-04-25 06:46:00,
2013-04-25 00:51:00,26.8,18.7,29.97,SE,135,4.0,4.6,71,0.00,CLR,,0.00,WeatherDisplay:10.37,2013-04-25 06:51:00,
2013-04-25 00:56:00,26.8,18.7,29.97,SE,135,5.1,5.8,71,0.00,CLR,,0.00,WeatherDisplay:10.37,2013-04-25 06:56:00,
2013-04-25 01:01:00,26.6,18.5,29.97,ESE,112,4.2,4.7,71,0.00,CLR,,0.00,WeatherDisplay:10.37,2013-04-25 07:01:00,
2013-04-25 01:06:00,26.4,18.3,29.97,SSE,158,3.9,5.3,71,0.00,CLR,,0.00,WeatherDisplay:10.37,2013-04-25 07:06:00,
2013-04-25 01:11:00,26.2,18.4,29.97,SE,135,3.6,4.6,72,0.00,CLR,,0.00,WeatherDisplay:10.37,2013-04-25 07:11:00,
2013-04-25 01:16:00,26.1,18.3,29.96,South,180,3.2,3.5,72,0.00,CLR,,0.00,WeatherDisplay:10.37,2013-04-25 07:16:00,
2013-04-25 01:21:00,26.1,18.3,29.96,SE,135,3.5,5.8,72,0.00,CLR,,0.00,WeatherDisplay:10.37,2013-04-25 07:21:00,
2013-04-25 01:26:00,25.9,18.1,29.96,SE,135,3.6,5.8,72,0.00,CLR,,0.00,WeatherDisplay:10.37,2013-04-25 07:26:00,
2013-04-25 01:31:00,25.7,18.2,29.96,SSE,158,0.6,2.3,73,0.00,CLR,,0.00,WeatherDisplay:10.37,2013-04-25 07:31:00,
2013-04-25 01:36:00,25.5,18.4,29.96,East,90,3.1,3.1,74,0.00,CLR,,0.00,WeatherDisplay:10.37,2013-04-25 07:36:00,
2013-04-25 01:41:00,25.5,18.4,29.96,SE,135,1.7,3.5,74,0.00,CLR,,0.00,WeatherDisplay:10.37,2013-04-25 07:41:00,
2013-04-25 01:46:00,25.3,18.2,29.96,SE,135,2.9,3.5,74,0.00,CLR,,0.00,WeatherDisplay:10.37,2013-04-25 07:46:00,
2013-04-25 01:51:00,25.2,18.4,29.96,SE,135,1.6,3.5,75,0.00,CLR,,0.00,WeatherDisplay:10.37,2013-04-25 07:51:00,
2013-04-25 01:56:00,25.9,18.4,29.95,ESE,112,3.5,3.7,73,0.00,CLR,,0.00,WeatherDisplay:10.37,2013-04-25 07:56:00,
2013-04-25 02:01:00,26.8,18.7,29.95,SE,135,4.5,5.8,71,0.00,CLR,,0.00,WeatherDisplay:10.37,2013-04-25 08:01:00,
2013-04-25 02:06:00,27.3,18.8,29.94,SE,135,5.3,6.9,70,0.00,CLR,,0.00,WeatherDisplay:10.37,2013-04-25 08:06:00,
2013-04-25 02:11:00,27.5,18.7,29.94,SE,135,3.3,5.8,69,0.00,CLR,,0.00,WeatherDisplay:10.37,2013-04-25 08:11:00,
2013-04-25 02:16:00,27.7,18.8,29.94,ENE,68,0.5,3.5,69,0.00,CLR,,0.00,WeatherDisplay:10.37,2013-04-25 08:16:00,
2013-04-25 02:21:00,27.1,18.3,29.94,East,90,1.9,2.3,69,0.00,CLR,,0.00,WeatherDisplay:10.37,2013-04-25 08:21:00,
2013-04-25 02:27:00,27.3,18.8,29.94,SE,135,4.2,4.2,70,0.00,CLR,,0.00,WeatherDisplay:10.37,2013-04-25 08:27:00,
2013-04-25 02:32:00,27.5,19.0,29.93,WNW,292,1.0,2.3,70,0.00,CLR,,0.00,WeatherDisplay:10.37,2013-04-25 08:32:00,
2013-04-25 02:37:00,28.0,19.5,29.93,SSE,158,2.7,4.6,70,0.00,CLR,,0.00,WeatherDisplay:10.37,2013-04-25 08:37:00,
2013-04-25 02:42:00,28.2,19.3,29.92,WSW,248,3.9,4.6,69,0.00,CLR,,0.00,WeatherDisplay:10.37,2013-04-25 08:42:00,
2013-04-25 02:47:00,28.0,19.5,29.92,South,180,1.5,3.5,70,0.00,CLR,,0.00,WeatherDisplay:10.37,2013-04-25 08:47:00,
2013-04-25 02:52:00,28.0,19.5,29.92,South,180,2.3,3.5,70,0.00,CLR,,0.00,WeatherDisplay:10.37,2013-04-25 08:52:00,
2013-04-25 02:57:00,27.7,19.5,29.92,WSW,248,2.2,3.5,71,0.00,CLR,,0.00,WeatherDisplay:10.37,2013-04-25 08:57:00,
2013-04-25 03:02:00,27.7,19.5,29.92,South,180,0.2,1.1,71,0.00,CLR,,0.00,WeatherDisplay:10.37,2013-04-25 09:02:00,
2013-04-25 03:07:00,27.9,20.0,29.91,South,180,4.4,5.8,72,0.00,CLR,,0.00,WeatherDisplay:10.37,2013-04-25 09:07:00,
2013-04-25 03:12:00,28.2,20.3,29.91,SW,225,1.8,2.3,72,0.00,SCT,,0.00,WeatherDisplay:10.37,2013-04-25 09:12:00,
2013-04-25 03:17:00,28.8,20.6,29.91,SSE,158,4.8,5.8,71,0.00,SCT,,0.00,WeatherDisplay:10.37,2013-04-25 09:17:00,
2013-04-25 03:22:00,29.5,20.9,29.91,SE,135,4.7,8.3,70,0.00,SCT,,0.00,WeatherDisplay:10.37,2013-04-25 09:22:00,
2013-04-25 03:27:00,30.0,21.4,29.91,South,180,7.4,10.4,70,0.00,SCT,,0.00,WeatherDisplay:10.37,2013-04-25 09:27:00,
2013-04-25 03:32:00,30.2,21.2,29.91,SSE,158,8.0,9.2,69,0.00,SCT,,0.00,WeatherDisplay:10.37,2013-04-25 09:32:00,
2013-04-25 03:37:00,30.4,21.4,29.91,South,180,5.0,5.8,69,0.00,SCT,,0.00,WeatherDisplay:10.37,2013-04-25 09:37:00,
2013-04-25 03:42:00,30.6,21.6,29.90,SW,225,6.8,9.2,69,0.00,SCT,,0.00,WeatherDisplay:10.37,2013-04-25 09:42:00,
2013-04-25 03:47:00,30.7,21.7,29.90,SSE,158,5.4,6.8,69,0.00,SCT,,0.00,WeatherDisplay:10.37,2013-04-25 09:47:00,
2013-04-25 03:52:00,30.7,21.7,29.89,SSE,158,5.2,5.8,69,0.00,SCT,,0.00,WeatherDisplay:10.37,2013-04-25 09:52:00,
2013-04-25 03:57:00,31.1,21.8,29.89,SSE,158,9.0,11.5,68,0.00,SCT,,0.00,WeatherDisplay:10.37,2013-04-25 09:57:00,
2013-04-25 04:02:00,31.3,22.0,29.89,East,90,10.2,12.7,68,0.00,OVC,,0.00,WeatherDisplay:10.37,2013-04-25 10:02:00,
2013-04-25 04:07:00,31.3,22.0,29.89,SSE,158,8.4,10.4,68,0.00,OVC,,0.00,WeatherDisplay:10.37,2013-04-25 10:07:00,
2013-04-25 04:12:00,31.3,22.0,29.89,SSW,202,5.5,8.1,68,0.00,OVC,,0.00,WeatherDisplay:10.37,2013-04-25 10:12:00,
2013-04-25 04:17:00,31.1,22.1,29.89,South,180,4.7,6.3,69,0.00,OVC,,0.00,WeatherDisplay:10.37,2013-04-25 10:17:00,
2013-04-25 04:22:00,31.1,22.1,29.89,SSW,202,6.7,8.8,69,0.00,OVC,,0.00,WeatherDisplay:10.37,2013-04-25 10:22:00,
2013-04-25 04:27:00,31.1,22.1,29.89,SSE,158,6.5,8.1,69,0.00,OVC,,0.00,WeatherDisplay:10.37,2013-04-25 10:27:00,
2013-04-25 04:32:00,30.9,22.3,29.89,SSW,202,2.7,2.7,70,0.00,OVC,,0.00,WeatherDisplay:10.37,2013-04-25 10:32:00,
2013-04-25 04:37:00,30.9,22.3,29.89,WNW,292,4.1,4.6,70,0.00,OVC,,0.00,WeatherDisplay:10.37,2013-04-25 10:37:00,
2013-04-25 04:42:00,30.9,22.3,29.88,ESE,112,2.3,3.5,70,0.00,OVC,,0.00,WeatherDisplay:10.37,2013-04-25 10:42:00,
2013-04-25 04:47:00,30.7,22.4,29.88,SSE,158,3.6,4.6,71,0.00,OVC,,0.00,WeatherDisplay:10.37,2013-04-25 10:47:00,
2013-04-25 04:52:00,30.6,22.3,29.88,SSW,202,2.3,3.5,71,0.00,OVC,,0.00,WeatherDisplay:10.37,2013-04-25 10:52:00,
2013-04-25 04:57:00,30.6,22.3,29.88,SSW,202,4.4,5.8,71,0.00,OVC,,0.00,WeatherDisplay:10.37,2013-04-25 10:57:00,
2013-04-25 05:02:00,30.6,22.3,29.88,WSW,248,4.9,5.8,71,0.00,OVC,,0.00,WeatherDisplay:10.37,2013-04-25 11:02:00,
2013-04-25 05:07:00,30.6,22.6,29.88,SW,225,2.6,3.7,72,0.00,OVC,,0.00,WeatherDisplay:10.37,2013-04-25 11:07:00,
2013-04-25 05:12:00,30.9,22.9,29.88,South,180,2.8,4.6,72,0.00,OVC,,0.00,WeatherDisplay:10.37,2013-04-25 11:12:00,
2013-04-25 05:17:00,31.1,22.8,29.87,SE,135,4.7,5.8,71,0.00,OVC,,0.00,WeatherDisplay:10.37,2013-04-25 11:17:00,
2013-04-25 05:22:00,31.1,23.1,29.87,SSE,158,6.4,7.8,72,0.00,OVC,,0.00,WeatherDisplay:10.37,2013-04-25 11:22:00,
2013-04-25 05:27:00,31.3,23.3,29.87,West,270,6.0,8.1,72,0.00,OVC,,0.00,WeatherDisplay:10.37,2013-04-25 11:27:00,
2013-04-25 05:32:00,31.3,23.3,29.87,SSW,202,4.5,6.9,72,0.00,OVC,,0.00,WeatherDisplay:10.37,2013-04-25 11:32:00,
2013-04-25 05:37:00,31.5,23.2,29.87,SSE,158,7.3,8.8,71,0.00,OVC,,0.00,WeatherDisplay:10.37,2013-04-25 11:37:00,
2013-04-25 05:42:00,31.6,23.3,29.87,SSW,202,5.1,10.4,71,0.00,OVC,,0.00,WeatherDisplay:10.37,2013-04-25 11:42:00,
2013-04-25 05:47:00,31.6,23.3,29.87,SSW,202,5.7,6.9,71,0.00,OVC,,0.00,WeatherDisplay:10.37,2013-04-25 11:47:00,
2013-04-25 05:52:00,31.5,23.5,29.87,South,180,4.1,4.7,72,0.00,OVC,,0.00,WeatherDisplay:10.37,2013-04-25 11:52:00,
2013-04-25 05:57:00,31.5,23.5,29.87,South,180,6.0,8.1,72,0.00,OVC,,0.00,WeatherDisplay:10.37,2013-04-25 11:57:00,
2013-04-25 06:02:00,31.5,23.5,29.87,SSW,202,2.9,2.9,72,0.00,OVC,,0.00,WeatherDisplay:10.37,2013-04-25 12:02:00,
2013-04-25 06:07:00,31.6,23.6,29.86,SSW,202,4.3,5.8,72,0.00,OVC,,0.00,WeatherDisplay:10.37,2013-04-25 12:07:00,
2013-04-25 06:12:00,31.8,23.8,29.86,SSE,158,4.1,6.3,72,0.00,OVC,,0.00,WeatherDisplay:10.37,2013-04-25 12:12:00,
2013-04-25 06:17:00,31.8,23.8,29.86,SSE,158,3.6,4.6,72,0.00,OVC,,0.00,WeatherDisplay:10.37,2013-04-25 12:17:00,
2013-04-25 06:22:00,32.0,24.0,29.86,SSE,158,2.1,2.3,72,0.00,OVC,,0.00,WeatherDisplay:10.37,2013-04-25 12:22:00,
2013-04-25 06:27:00,32.9,24.5,29.86,SSE,158,2.1,3.5,71,0.00,OVC,,0.00,WeatherDisplay:10.37,2013-04-25 12:27:00,
2013-04-25 06:32:00,34.0,24.9,29.86,SSE,158,4.5,5.8,69,0.00,OVC,,0.00,WeatherDisplay:10.37,2013-04-25 12:32:00,
2013-04-25 06:37:00,34.5,25.4,29.86,South,180,5.6,6.9,69,0.00,OVC,,0.00,WeatherDisplay:10.37,2013-04-25 12:37:00,
2013-04-25 06:42:00,34.9,25.4,29.86,SSE,158,7.0,7.0,68,0.00,OVC,,0.00,WeatherDisplay:10.37,2013-04-25 12:42:00,
2013-04-25 06:47:00,34.9,25.4,29.86,SSW,202,6.5,8.1,68,0.00,OVC,,0.00,WeatherDisplay:10.37,2013-04-25 12:47:00,
2013-04-25 06:52:00,34.9,25.0,29.85,South,180,8.1,10.4,67,0.00,OVC,,0.00,WeatherDisplay:10.37,2013-04-25 12:52:00,
2013-04-25 06:57:00,34.3,24.8,29.85,South,180,6.0,8.1,68,0.00,OVC,,0.00,WeatherDisplay:10.37,2013-04-25 12:57:00,
2013-04-25 07:02:00,35.4,25.5,29.85,South,180,8.4,8.8,67,0.00,BKN,,0.00,WeatherDisplay:10.37,2013-04-25 13:02:00,
2013-04-25 07:07:00,36.7,26.0,29.86,South,180,5.8,7.8,65,0.00,BKN,,0.00,WeatherDisplay:10.37,2013-04-25 13:07:00,
2013-04-25 07:12:00,37.0,25.9,29.86,SSE,158,10.5,12.7,64,0.00,BKN,,0.00,WeatherDisplay:10.37,2013-04-25 13:12:00,
2013-04-25 07:17:00,37.0,25.9,29.85,SSE,158,5.7,10.4,64,0.00,BKN,,0.00,WeatherDisplay:10.37,2013-04-25 13:17:00,
2013-04-25 07:22:00,36.9,25.9,29.85,SSE,158,8.6,9.2,64,0.00,BKN,,0.00,WeatherDisplay:10.37,2013-04-25 13:22:00,
2013-04-25 07:27:00,36.9,25.9,29.85,South,180,5.6,5.8,64,0.00,BKN,,0.00,WeatherDisplay:10.37,2013-04-25 13:27:00,
2013-04-25 07:32:00,37.2,26.1,29.85,ESE,112,6.3,6.8,64,0.00,BKN,,0.00,WeatherDisplay:10.37,2013-04-25 13:32:00,
2013-04-25 07:37:00,38.1,26.6,29.85,ESE,112,5.0,7.3,63,0.00,BKN,,0.00,WeatherDisplay:10.37,2013-04-25 13:37:00,
2013-04-25 07:42:00,38.8,26.9,29.85,SE,135,8.0,9.2,62,0.00,BKN,,0.00,WeatherDisplay:10.37,2013-04-25 13:42:00,
2013-04-25 07:47:00,38.7,26.4,29.85,SSE,158,8.8,10.4,61,0.00,BKN,,0.00,WeatherDisplay:10.37,2013-04-25 13:47:00,
2013-04-25 07:52:00,39.0,26.7,29.85,SSE,158,7.0,9.2,61,0.00,BKN,,0.00,WeatherDisplay:10.37,2013-04-25 13:52:00,
2013-04-25 07:57:00,39.6,26.8,29.85,SE,135,7.3,7.8,60,0.00,BKN,,0.00,WeatherDisplay:10.37,2013-04-25 13:57:00,
2013-04-25 08:02:00,39.9,27.1,29.85,SSE,158,8.1,10.4,60,0.00,OVC,,0.00,WeatherDisplay:10.37,2013-04-25 14:02:00,
2013-04-25 08:07:00,40.5,27.3,29.85,SSE,158,4.8,6.9,59,0.00,OVC,,0.00,WeatherDisplay:10.37,2013-04-25 14:07:00,
2013-04-25 08:13:00,41.4,27.7,29.85,SSE,158,6.6,8.1,58,0.00,OVC,,0.00,WeatherDisplay:10.37,2013-04-25 14:13:00,
2013-04-25 08:18:00,42.3,28.1,29.84,ESE,112,4.0,6.9,57,0.00,OVC,,0.00,WeatherDisplay:10.37,2013-04-25 14:18:00,
2013-04-25 08:23:00,43.2,29.0,29.84,ESE,112,4.6,5.8,57,0.00,OVC,,0.00,WeatherDisplay:10.37,2013-04-25 14:23:00,
2013-04-25 08:28:00,43.2,29.0,29.84,SE,135,5.7,6.9,57,0.00,OVC,,0.00,WeatherDisplay:10.37,2013-04-25 14:28:00,
2013-04-25 08:33:00,44.1,28.9,29.84,SSW,202,6.5,9.2,55,0.00,OVC,,0.00,WeatherDisplay:10.37,2013-04-25 14:33:00,
2013-04-25 08:38:00,45.3,29.2,29.84,SSE,158,7.6,11.5,53,0.00,OVC,,0.00,WeatherDisplay:10.37,2013-04-25 14:38:00,
2013-04-25 08:43:00,45.3,29.2,29.83,SSE,158,5.3,5.8,53,0.00,OVC,,0.00,WeatherDisplay:10.37,2013-04-25 14:43:00,
2013-04-25 08:48:00,46.4,29.2,29.83,SSE,158,10.6,11.5,51,0.00,OVC,,0.00,WeatherDisplay:10.37,2013-04-25 14:48:00,
2013-04-25 08:53:00,46.4,29.2,29.83,South,180,11.8,12.7,51,0.00,OVC,,0.00,WeatherDisplay:10.37,2013-04-25 14:53:00,
2013-04-25 08:58:00,47.1,29.9,29.83,SSE,158,9.7,12.7,51,0.00,OVC,,0.00,WeatherDisplay:10.37,2013-04-25 14:58:00,
2013-04-25 09:03:00,47.1,29.9,29.83,SSE,158,12.3,15.0,51,0.00,BKN,,0.00,WeatherDisplay:10.37,2013-04-25 15:03:00,
2013-04-25 09:08:00,47.5,30.3,29.82,South,180,9.7,12.7,51,0.00,BKN,,0.00,WeatherDisplay:10.37,2013-04-25 15:08:00,
2013-04-25 09:13:00,48.2,30.4,29.82,WSW,248,8.7,11.5,50,0.00,BKN,,0.00,WeatherDisplay:10.37,2013-04-25 15:13:00,
2013-04-25 09:18:00,48.2,29.9,29.82,SE,135,13.8,15.0,49,0.00,BKN,,0.00,WeatherDisplay:10.37,2013-04-25 15:18:00,
2013-04-25 09:23:00,49.3,30.9,29.82,SSW,202,10.2,11.5,49,0.00,BKN,,0.00,WeatherDisplay:10.37,2013-04-25 15:23:00,
2013-04-25 09:28:00,49.5,31.1,29.81,SSE,158,11.1,11.5,49,0.00,BKN,,0.00,WeatherDisplay:10.37,2013-04-25 15:28:00,
2013-04-25 09:33:00,50.2,31.2,29.81,SSE,158,11.4,17.1,48,0.00,BKN,,0.00,WeatherDisplay:10.37,2013-04-25 15:33:00,
2013-04-25 09:38:00,50.5,31.0,29.81,SSE,158,12.5,17.1,47,0.00,BKN,,0.00,WeatherDisplay:10.37,2013-04-25 15:38:00,
2013-04-25 09:43:00,51.6,31.5,29.80,SSE,158,14.9,16.1,46,0.00,BKN,,0.00,WeatherDisplay:10.37,2013-04-25 15:43:00,
2013-04-25 09:48:00,51.8,31.1,29.80,SE,135,12.2,17.3,45,0.00,BKN,,0.00,WeatherDisplay:10.37,2013-04-25 15:48:00,
2013-04-25 09:53:00,52.2,30.9,29.80,SSE,158,12.2,15.0,44,0.00,BKN,,0.00,WeatherDisplay:10.37,2013-04-25 15:53:00,
2013-04-25 09:58:00,53.2,31.3,29.80,SSW,202,11.5,13.8,43,0.00,BKN,,0.00,WeatherDisplay:10.37,2013-04-25 15:58:00,
2013-04-25 10:03:00,52.5,30.0,29.80,SSW,202,14.7,19.6,42,0.00,CLR,,0.00,WeatherDisplay:10.37,2013-04-25 16:03:00,
2013-04-25 10:08:00,52.9,30.4,29.80,SSW,202,15.3,18.1,42,0.00,CLR,,0.00,WeatherDisplay:10.37,2013-04-25 16:08:00,
2013-04-25 10:13:00,52.9,29.8,29.80,South,180,15.8,20.7,41,0.00,CLR,,0.00,WeatherDisplay:10.37,2013-04-25 16:13:00,
2013-04-25 10:18:00,53.4,30.3,29.79,SSE,158,13.7,17.3,41,0.00,CLR,,0.00,WeatherDisplay:10.37,2013-04-25 16:18:00,
2013-04-25 10:23:00,53.8,30.6,29.79,SSW,202,12.3,17.3,41,0.00,CLR,,0.00,WeatherDisplay:10.37,2013-04-25 16:23:00,
2013-04-25 10:28:00,53.6,29.8,29.79,SSE,158,14.9,16.1,40,0.00,CLR,,0.00,WeatherDisplay:10.37,2013-04-25 16:28:00,
2013-04-25 10:33:00,54.3,30.5,29.79,South,180,14.5,15.0,40,0.00,CLR,,0.00,WeatherDisplay:10.37,2013-04-25 16:33:00,
2013-04-25 10:38:00,54.3,30.5,29.79,South,180,14.5,15.0,40,0.00,CLR,,0.00,WeatherDisplay:10.37,2013-04-25 16:38:00,
2013-04-25 10:43:00,55.6,31.0,29.78,SSW,202,8.6,11.9,39,0.00,CLR,,0.00,WeatherDisplay:10.37,2013-04-25 16:43:00,
2013-04-25 10:48:00,55.2,30.7,29.78,SSE,158,11.3,14.5,39,0.00,CLR,,0.00,WeatherDisplay:10.37,2013-04-25 16:48:00,
2013-04-25 10:53:00,55.6,31.0,29.78,SSW,202,10.2,16.1,39,0.00,CLR,,0.00,WeatherDisplay:10.37,2013-04-25 16:53:00,
2013-04-25 10:58:00,56.1,30.8,29.78,SW,225,8.9,12.7,38,0.00,CLR,,0.00,WeatherDisplay:10.37,2013-04-25 16:58:00,
2013-04-25 11:03:00,55.8,29.9,29.78,SSE,158,9.3,15.0,37,0.00,CLR,,0.00,WeatherDisplay:10.37,2013-04-25 17:03:00,
2013-04-25 11:08:00,56.3,30.3,29.78,SW,225,13.9,16.1,37,0.00,CLR,,0.00,WeatherDisplay:10.37,2013-04-25 17:08:00,
2013-04-25 11:13:00,57.4,31.3,29.78,South,180,7.5,10.4,37,0.00,CLR,,0.00,WeatherDisplay:10.37,2013-04-25 17:13:00,
2013-04-25 11:18:00,57.9,31.1,29.78,SSE,158,8.5,11.5,36,0.00,CLR,,0.00,WeatherDisplay:10.37,2013-04-25 17:18:00,
2013-04-25 11:23:00,57.6,30.8,29.78,SSE,158,11.3,14.0,36,0.00,CLR,,0.00,WeatherDisplay:10.37,2013-04-25 17:23:00,
2013-04-25 11:28:00,57.2,30.5,29.77,SSW,202,8.0,9.2,36,0.00,CLR,,0.00,WeatherDisplay:10.37,2013-04-25 17:28:00,
2013-04-25 11:33:00,57.2,30.5,29.77,SSW,202,8.8,9.2,36,0.00,CLR,,0.00,WeatherDisplay:10.37,2013-04-25 17:33:00,
2013-04-25 11:38:00,58.8,31.2,29.77,SSW,202,7.6,9.4,35,0.00,CLR,,0.00,WeatherDisplay:10.37,2013-04-25 17:38:00,
2013-04-25 11:43:00,59.2,32.2,29.77,SSW,202,8.6,9.2,36,0.00,CLR,,0.00,WeatherDisplay:10.37,2013-04-25 17:43:00,
2013-04-25 11:48:00,59.7,32.0,29.77,South,180,7.6,10.4,35,0.00,CLR,,0.00,WeatherDisplay:10.37,2013-04-25 17:48:00,
2013-04-25 11:53:00,60.1,32.3,29.76,SW,225,8.6,10.4,35,0.00,CLR,,0.00,WeatherDisplay:10.37,2013-04-25 17:53:00,
2013-04-25 11:58:00,59.4,31.0,29.76,SW,225,8.7,10.4,34,0.00,CLR,,0.00,WeatherDisplay:10.37,2013-04-25 17:58:00,
2013-04-25 12:03:00,60.8,31.5,29.76,SW,225,11.8,14.0,33,0.00,CLR,,0.00,WeatherDisplay:10.37,2013-04-25 18:03:00,
2013-04-25 12:08:00,60.3,30.3,29.76,WSW,248,8.9,12.7,32,0.00,CLR,,0.00,WeatherDisplay:10.37,2013-04-25 18:08:00,
2013-04-25 12:13:00,61.2,31.1,29.76,SW,225,7.8,8.1,32,0.00,CLR,,0.00,WeatherDisplay:10.37,2013-04-25 18:13:00,
2013-04-25 12:18:00,61.2,31.1,29.76,WNW,292,8.0,10.4,32,0.00,CLR,,0.00,WeatherDisplay:10.37,2013-04-25 18:18:00,
2013-04-25 12:23:00,61.2,31.1,29.76,SW,225,10.7,12.7,32,0.00,CLR,,0.00,WeatherDisplay:10.37,2013-04-25 18:23:00,
2013-04-25 12:28:00,61.2,31.8,29.76,WSW,248,9.7,11.5,33,0.00,CLR,,0.00,WeatherDisplay:10.37,2013-04-25 18:28:00,
2013-04-25 12:33:00,61.7,31.5,29.75,WSW,248,5.1,6.9,32,0.00,CLR,,0.00,WeatherDisplay:10.37,2013-04-25 18:33:00,
2013-04-25 12:38:00,61.5,31.3,29.75,WSW,248,5.5,10.4,32,0.00,CLR,,0.00,WeatherDisplay:10.37,2013-04-25 18:38:00,
2013-04-25 12:43:00,62.1,31.1,29.75,WNW,292,5.2,8.3,31,0.00,CLR,,0.00,WeatherDisplay:10.37,2013-04-25 18:43:00,
2013-04-25 12:48:00,62.4,32.1,29.75,WSW,248,7.4,9.2,32,0.00,CLR,,0.00,WeatherDisplay:10.37,2013-04-25 18:48:00,
2013-04-25 12:53:00,62.2,31.2,29.74,West,270,9.5,10.4,31,0.00,CLR,,0.00,WeatherDisplay:10.37,2013-04-25 18:53:00,
2013-04-25 12:58:00,63.1,31.9,29.74,WSW,248,8.4,10.4,31,0.00,CLR,,0.00,WeatherDisplay:10.37,2013-04-25 18:58:00,
2013-04-25 13:03:00,62.8,30.9,29.74,West,270,8.1,10.4,30,0.00,CLR,,0.00,WeatherDisplay:10.37,2013-04-25 19:03:00,
2013-04-25 13:08:00,62.4,31.3,29.74,West,270,12.7,16.1,31,0.00,CLR,,0.00,WeatherDisplay:10.37,2013-04-25 19:08:00,
2013-04-25 13:13:00,62.4,31.3,29.74,West,270,9.7,10.4,31,0.00,BKN,,0.00,WeatherDisplay:10.37,2013-04-25 19:13:00,
2013-04-25 13:18:00,61.7,31.5,29.74,SW,225,8.6,9.4,32,0.00,BKN,,0.00,WeatherDisplay:10.37,2013-04-25 19:18:00,
2013-04-25 13:23:00,61.9,31.7,29.74,West,270,9.1,9.4,32,0.00,BKN,,0.00,WeatherDisplay:10.37,2013-04-25 19:23:00,
2013-04-25 13:28:00,62.4,32.1,29.74,SW,225,2.4,6.9,32,0.00,BKN,,0.00,WeatherDisplay:10.37,2013-04-25 19:28:00,
2013-04-25 13:33:00,61.9,32.5,29.74,SW,225,7.2,9.4,33,0.00,BKN,,0.00,WeatherDisplay:10.37,2013-04-25 19:33:00,
2013-04-25 13:38:00,62.1,32.6,29.74,North,360,5.9,6.9,33,0.00,BKN,,0.00,WeatherDisplay:10.37,2013-04-25 19:38:00,
2013-04-25 13:43:00,61.9,32.5,29.74,WSW,248,8.1,9.2,33,0.00,BKN,,0.00,WeatherDisplay:10.37,2013-04-25 19:43:00,
2013-04-25 13:48:00,62.1,32.6,29.74,SW,225,8.5,9.2,33,0.00,BKN,,0.00,WeatherDisplay:10.37,2013-04-25 19:48:00,
2013-04-25 13:53:00,61.9,31.7,29.74,WSW,248,7.2,8.1,32,0.00,BKN,,0.00,WeatherDisplay:10.37,2013-04-25 19:53:00,
2013-04-25 13:59:00,61.9,31.7,29.74,WSW,248,9.6,10.4,32,0.00,BKN,,0.00,WeatherDisplay:10.37,2013-04-25 19:59:00,
2013-04-25 14:04:00,62.2,30.4,29.74,WSW,248,6.9,9.2,30,0.00,BKN,,0.00,WeatherDisplay:10.37,2013-04-25 20:04:00,
2013-04-25 14:09:00,63.0,30.2,29.73,WSW,248,13.9,16.1,29,0.00,BKN,,0.00,WeatherDisplay:10.37,2013-04-25 20:09:00,
2013-04-25 14:14:00,63.3,30.5,29.73,WSW,248,7.5,9.2,29,0.00,BKN,,0.00,WeatherDisplay:10.37,2013-04-25 20:14:00,
2013-04-25 14:19:00,62.8,30.0,29.74,West,270,9.4,10.4,29,0.00,BKN,,0.00,WeatherDisplay:10.37,2013-04-25 20:19:00,
2013-04-25 14:24:00,62.2,29.5,29.74,SW,225,10.9,13.8,29,0.00,BKN,,0.00,WeatherDisplay:10.37,2013-04-25 20:24:00,
2013-04-25 14:29:00,62.1,28.6,29.74,West,270,7.9,10.4,28,0.00,BKN,,0.00,WeatherDisplay:10.37,2013-04-25 20:29:00,
2013-04-25 14:34:00,61.5,28.9,29.74,WSW,248,7.9,11.5,29,0.00,BKN,,0.00,WeatherDisplay:10.37,2013-04-25 20:34:00,
2013-04-25 14:39:00,61.7,29.1,29.74,West,270,6.6,8.1,29,0.00,BKN,,0.00,WeatherDisplay:10.37,2013-04-25 20:39:00,
2013-04-25 14:44:00,61.5,28.9,29.74,West,270,10.0,11.5,29,0.00,BKN,,0.00,WeatherDisplay:10.37,2013-04-25 20:44:00,
2013-04-25 14:49:00,61.5,29.7,29.74,SW,225,6.0,8.1,30,0.00,BKN,,0.00,WeatherDisplay:10.37,2013-04-25 20:49:00,
2013-04-25 14:54:00,61.7,30.7,29.73,West,270,6.7,8.1,31,0.00,BKN,,0.00,WeatherDisplay:10.37,2013-04-25 20:54:00,
2013-04-25 14:59:00,62.1,30.3,29.73,WSW,248,6.4,8.1,30,0.00,BKN,,0.00,WeatherDisplay:10.37,2013-04-25 20:59:00,
2013-04-25 15:04:00,61.7,29.9,29.74,WSW,248,11.0,15.0,30,0.00,OVC,,0.00,WeatherDisplay:10.37,2013-04-25 21:04:00,
2013-04-25 15:09:00,61.3,31.9,29.74,NNW,338,7.2,9.2,33,0.00,OVC,,0.00,WeatherDisplay:10.37,2013-04-25 21:09:00,
2013-04-25 15:14:00,61.2,32.6,29.74,West,270,10.0,13.8,34,0.00,OVC,,0.00,WeatherDisplay:10.37,2013-04-25 21:14:00,
2013-04-25 15:19:00,61.9,32.5,29.74,West,270,10.4,14.0,33,0.00,OVC,,0.00,WeatherDisplay:10.37,2013-04-25 21:19:00,
2013-04-25 15:24:00,61.9,32.5,29.74,WSW,248,11.9,11.9,33,0.00,OVC,,0.00,WeatherDisplay:10.37,2013-04-25 21:24:00,
2013-04-25 15:29:00,61.9,32.5,29.74,West,270,7.4,9.2,33,0.00,OVC,,0.00,WeatherDisplay:10.37,2013-04-25 21:29:00,
2013-04-25 15:34:00,61.7,30.7,29.74,SW,225,11.0,12.7,31,0.00,OVC,,0.00,WeatherDisplay:10.37,2013-04-25 21:34:00,
2013-04-25 15:39:00,61.7,30.7,29.74,West,270,5.6,6.9,31,0.00,OVC,,0.00,WeatherDisplay:10.37,2013-04-25 21:39:00,
2013-04-25 15:44:00,61.5,31.3,29.74,NW,315,9.1,10.9,32,0.00,OVC,,0.00,WeatherDisplay:10.37,2013-04-25 21:44:00,
2013-04-25 15:49:00,61.0,30.1,29.74,West,270,9.5,10.9,31,0.00,OVC,,0.00,WeatherDisplay:10.37,2013-04-25 21:49:00,
2013-04-25 15:54:00,60.6,31.3,29.75,West,270,10.1,10.9,33,0.00,OVC,,0.00,WeatherDisplay:10.37,2013-04-25 21:54:00,
2013-04-25 15:59:00,59.2,32.2,29.75,SW,225,14.7,17.3,36,0.00,OVC,,0.00,WeatherDisplay:10.37,2013-04-25 21:59:00,
2013-04-25 16:04:00,58.6,32.4,29.76,WSW,248,8.6,10.4,37,0.00,OVC,,0.00,WeatherDisplay:10.37,2013-04-25 22:04:00,
2013-04-25 16:09:00,58.5,33.0,29.76,SW,225,9.0,11.9,38,0.00,OVC,,0.00,WeatherDisplay:10.37,2013-04-25 22:09:00,
2013-04-25 16:14:00,58.8,32.6,29.76,West,270,10.9,13.8,37,0.00,OVC,,0.00,WeatherDisplay:10.37,2013-04-25 22:14:00,
2013-04-25 16:19:00,59.5,32.5,29.76,NW,315,7.0,8.1,36,0.00,OVC,,0.00,WeatherDisplay:10.37,2013-04-25 22:19:00,
2013-04-25 16:24:00,60.3,33.2,29.76,WSW,248,8.7,11.5,36,0.00,OVC,,0.00,WeatherDisplay:10.37,2013-04-25 22:24:00,
2013-04-25 16:29:00,60.6,32.8,29.75,WSW,248,6.5,8.3,35,0.00,OVC,,0.00,WeatherDisplay:10.37,2013-04-25 22:29:00,
2013-04-25 16:34:00,61.0,33.8,29.75,SW,225,5.8,8.1,36,0.00,OVC,,0.00,WeatherDisplay:10.37,2013-04-25 22:34:00,
2013-04-25 16:39:00,62.1,34.1,29.75,WSW,248,6.0,6.8,35,0.00,OVC,,0.00,WeatherDisplay:10.37,2013-04-25 22:39:00,
2013-04-25 16:44:00,62.2,34.2,29.75,SW,225,5.1,6.9,35,0.00,OVC,,0.00,WeatherDisplay:10.37,2013-04-25 22:44:00,
2013-04-25 16:49:00,62.4,32.9,29.75,South,180,5.9,5.9,33,0.00,OVC,,0.00,WeatherDisplay:10.37,2013-04-25 22:49:00,
2013-04-25 16:54:00,62.6,33.1,29.74,SW,225,4.6,5.8,33,0.00,OVC,,0.00,WeatherDisplay:10.37,2013-04-25 22:54:00,
2013-04-25 16:59:00,61.7,32.3,29.74,WSW,248,6.7,6.9,33,0.00,OVC,,0.00,WeatherDisplay:10.37,2013-04-25 22:59:00,
2013-04-25 17:04:00,61.3,32.7,29.74,SW,225,9.7,10.4,34,0.00,BKN,,0.00,WeatherDisplay:10.37,2013-04-25 23:04:00,
2013-04-25 17:09:00,61.3,32.7,29.74,West,270,5.2,7.3,34,0.00,BKN,,0.00,WeatherDisplay:10.37,2013-04-25 23:09:00,
2013-04-25 17:14:00,61.3,32.7,29.74,ENE,68,4.4,5.8,34,0.00,BKN,,0.00,WeatherDisplay:10.37,2013-04-25 23:14:00,
2013-04-25 17:19:00,61.5,32.8,29.75,NW,315,4.0,8.1,34,0.00,BKN,,0.00,WeatherDisplay:10.37,2013-04-25 23:19:00,
2013-04-25 17:24:00,61.5,32.8,29.75,WNW,292,3.1,4.6,34,0.00,BKN,,0.00,WeatherDisplay:10.37,2013-04-25 23:24:00,
2013-04-25 17:29:00,61.7,33.0,29.75,NNW,338,2.2,2.3,34,0.00,BKN,,0.00,WeatherDisplay:10.37,2013-04-25 23:29:00,
2013-04-25 17:34:00,61.9,33.2,29.75,NNW,338,2.4,3.5,34,0.00,BKN,,0.00,WeatherDisplay:10.37,2013-04-25 23:34:00,
2013-04-25 17:39:00,61.9,32.5,29.75,West,270,2.3,4.7,33,0.00,BKN,,0.00,WeatherDisplay:10.37,2013-04-25 23:39:00,
2013-04-25 17:44:00,61.7,31.5,29.75,WSW,248,4.8,8.1,32,0.00,BKN,,0.00,WeatherDisplay:10.37,2013-04-25 23:44:00,
2013-04-25 17:49:00,61.9,30.9,29.75,West,270,3.7,5.8,31,0.00,BKN,,0.00,WeatherDisplay:10.37,2013-04-25 23:49:00,
2013-04-25 17:54:00,61.9,30.1,29.75,SW,225,3.9,5.8,30,0.00,BKN,,0.00,WeatherDisplay:10.37,2013-04-25 23:54:00,
2013-04-25 17:59:00,61.9,30.1,29.75,West,270,4.9,5.8,30,0.00,BKN,,0.00,WeatherDisplay:10.37,2013-04-25 23:59:00,
2013-04-25 18:04:00,61.9,30.1,29.76,WSW,248,4.9,5.8,30,0.00,SCT,,0.00,WeatherDisplay:10.37,2013-04-26 00:04:00,
2013-04-25 18:09:00,61.9,30.9,29.76,NW,315,5.4,5.8,31,0.00,SCT,,0.00,WeatherDisplay:10.37,2013-04-26 00:09:00,
2013-04-25 18:14:00,61.9,30.9,29.76,WNW,292,2.8,3.5,31,0.00,SCT,,0.00,WeatherDisplay:10.37,2013-04-26 00:14:00,
2013-04-25 18:19:00,61.9,30.9,29.76,West,270,3.7,5.8,31,0.00,SCT,,0.00,WeatherDisplay:10.37,2013-04-26 00:19:00,
2013-04-25 18:25:00,62.1,30.3,29.76,West,270,6.4,8.1,30,0.00,SCT,,0.00,WeatherDisplay:10.37,2013-04-26 00:25:00,
2013-04-25 18:30:00,61.7,29.9,29.76,WSW,248,8.0,9.2,30,0.00,SCT,,0.00,WeatherDisplay:10.37,2013-04-26 00:30:00,
2013-04-25 18:35:00,61.3,30.4,29.76,West,270,5.3,6.8,31,0.00,SCT,,0.00,WeatherDisplay:10.37,2013-04-26 00:35:00,
2013-04-25 18:40:00,61.0,30.9,29.76,West,270,4.7,5.8,32,0.00,SCT,,0.00,WeatherDisplay:10.37,2013-04-26 00:40:00,
2013-04-25 18:45:00,60.6,31.3,29.76,West,270,6.5,9.2,33,0.00,SCT,,0.00,WeatherDisplay:10.37,2013-04-26 00:45:00,
2013-04-25 18:50:00,60.3,31.0,29.76,NW,315,5.0,5.8,33,0.00,SCT,,0.00,WeatherDisplay:10.37,2013-04-26 00:50:00,
2013-04-25 18:55:00,60.6,31.3,29.76,WNW,292,3.5,3.7,33,0.00,SCT,,0.00,WeatherDisplay:10.37,2013-04-26 00:55:00,
2013-04-25 19:00:00,61.0,30.9,29.76,NW,315,4.1,5.8,32,0.00,SCT,,0.00,WeatherDisplay:10.37,2013-04-26 01:00:00,
2013-04-25 19:05:00,61.0,30.9,29.77,West,270,4.0,4.7,32,0.00,BKN,,0.00,WeatherDisplay:10.37,2013-04-26 01:05:00,
2013-04-25 19:10:00,60.4,30.4,29.77,WSW,248,4.4,5.8,32,0.00,BKN,,0.00,WeatherDisplay:10.37,2013-04-26 01:10:00,
2013-04-25 19:15:00,60.1,30.9,29.77,West,270,2.6,3.5,33,0.00,BKN,,0.00,WeatherDisplay:10.37,2013-04-26 01:15:00,
2013-04-25 19:20:00,59.4,31.0,29.77,West,270,3.2,3.7,34,0.00,BKN,,0.00,WeatherDisplay:10.37,2013-04-26 01:20:00,
2013-04-25 19:25:00,58.8,31.2,29.77,West,270,4.3,4.7,35,0.00,BKN,,0.00,WeatherDisplay:10.37,2013-04-26 01:25:00,
2013-04-25 19:30:00,58.3,31.4,29.78,West,270,3.3,3.7,36,0.00,BKN,,0.00,WeatherDisplay:10.37,2013-04-26 01:30:00,
2013-04-25 19:35:00,57.9,31.8,29.78,West,270,2.0,2.3,37,0.00,BKN,,0.00,WeatherDisplay:10.37,2013-04-26 01:35:00,
2013-04-25 19:40:00,57.6,32.2,29.78,WSW,248,2.7,3.5,38,0.00,BKN,,0.00,WeatherDisplay:10.37,2013-04-26 01:40:00,
2013-04-25 19:45:00,56.5,32.4,29.78,SW,225,1.7,2.3,40,0.00,BKN,,0.00,WeatherDisplay:10.37,2013-04-26 01:45:00,
2013-04-25 19:50:00,55.9,32.5,29.78,SW,225,1.7,2.3,41,0.00,BKN,,0.00,WeatherDisplay:10.37,2013-04-26 01:50:00,
2013-04-25 19:55:00,54.7,33.2,29.79,WSW,248,2.9,3.5,44,0.00,BKN,,0.00,WeatherDisplay:10.37,2013-04-26 01:55:00,
2013-04-25 20:00:00,54.5,33.0,29.79,WSW,248,1.5,2.2,44,0.00,BKN,,0.00,WeatherDisplay:10.37,2013-04-26 02:00:00,
2013-04-25 20:05:00,54.0,32.6,29.79,West,270,2.9,3.5,44,0.00,BKN,,0.00,WeatherDisplay:10.37,2013-04-26 02:05:00,
2013-04-25 20:10:00,53.6,32.2,29.79,West,270,2.7,3.5,44,0.00,BKN,,0.00,WeatherDisplay:10.37,2013-04-26 02:10:00,
2013-04-25 20:15:00,53.2,31.3,29.80,WSW,248,4.2,4.6,43,0.00,BKN,,0.00,WeatherDisplay:10.37,2013-04-26 02:15:00,
2013-04-25 20:20:00,53.1,31.7,29.80,SW,225,0.4,1.1,44,0.00,BKN,,0.00,WeatherDisplay:10.37,2013-04-26 02:20:00,
2013-04-25 20:25:00,52.2,31.5,29.80,SSE,158,0.3,1.1,45,0.00,BKN,,0.00,WeatherDisplay:10.37,2013-04-26 02:25:00,
2013-04-25 20:30:00,51.6,31.5,29.80,WSW,248,2.1,3.7,46,0.00,BKN,,0.00,WeatherDisplay:10.37,2013-04-26 02:30:00,
2013-04-25 20:35:00,50.9,31.9,29.80,WSW,248,2.3,2.3,48,0.00,BKN,,0.00,WeatherDisplay:10.37,2013-04-26 02:35:00,
2013-04-25 20:40:00,50.4,31.9,29.80,WNW,292,1.3,2.3,49,0.00,BKN,,0.00,WeatherDisplay:10.37,2013-04-26 02:40:00,
2013-04-25 20:45:00,49.8,31.9,29.81,SW,225,1.8,2.3,50,0.00,BKN,,0.00,WeatherDisplay:10.37,2013-04-26 02:45:00,
2013-04-25 20:50:00,48.9,32.0,29.81,South,180,0.0,0.0,52,0.00,BKN,,0.00,WeatherDisplay:10.37,2013-04-26 02:50:00,
2013-04-25 20:55:00,48.4,31.6,29.82,West,270,0.0,0.0,52,0.00,BKN,,0.00,WeatherDisplay:10.37,2013-04-26 02:55:00,
2013-04-25 21:00:00,48.2,30.9,29.82,WNW,292,3.2,4.6,51,0.00,BKN,,0.00,WeatherDisplay:10.37,2013-04-26 03:00:00,
2013-04-25 21:05:00,49.1,30.7,29.83,NE,45,2.6,3.7,49,0.00,CLR,,0.00,WeatherDisplay:10.37,2013-04-26 03:05:00,
2013-04-25 21:10:00,50.2,30.7,29.83,NNW,338,4.6,5.8,47,0.00,CLR,,0.00,WeatherDisplay:10.37,2013-04-26 03:10:00,
2013-04-25 21:15:00,49.8,30.9,29.83,West,270,4.5,5.8,48,0.00,CLR,,0.00,WeatherDisplay:10.37,2013-04-26 03:15:00,
2013-04-25 21:20:00,49.5,31.1,29.84,NNW,338,2.2,3.5,49,0.00,CLR,,0.00,WeatherDisplay:10.37,2013-04-26 03:20:00,
2013-04-25 21:25:00,49.6,31.2,29.84,NNW,338,3.6,5.8,49,0.00,CLR,,0.00,WeatherDisplay:10.37,2013-04-26 03:25:00,
2013-04-25 21:30:00,50.0,31.6,29.84,WNW,292,3.8,5.8,49,0.00,CLR,,0.00,WeatherDisplay:10.37,2013-04-26 03:30:00,
2013-04-25 21:35:00,49.6,32.2,29.84,NE,45,3.0,4.6,51,0.00,CLR,,0.00,WeatherDisplay:10.37,2013-04-26 03:35:00,
2013-04-25 21:40:00,49.3,31.9,29.85,NNE,22,4.3,5.8,51,0.00,CLR,,0.00,WeatherDisplay:10.37,2013-04-26 03:40:00,
2013-04-25 21:45:00,49.3,31.9,29.85,NE,45,4.2,5.8,51,0.00,CLR,,0.00,WeatherDisplay:10.37,2013-04-26 03:45:00,
2013-04-25 21:50:00,49.3,32.4,29.85,NE,45,4.0,4.6,52,0.00,CLR,,0.00,WeatherDisplay:10.37,2013-04-26 03:50:00,
2013-04-25 21:55:00,48.9,32.5,29.86,North,360,3.5,3.7,53,0.00,CLR,,0.00,WeatherDisplay:10.37,2013-04-26 03:55:00,
2013-04-25 22:00:00,48.7,32.3,29.86,NE,45,3.5,5.8,53,0.00,CLR,,0.00,WeatherDisplay:10.37,2013-04-26 04:00:00,
2013-04-25 22:01:00,48.7,32.3,29.86,NE,45,2.9,5.8,53,0.00,CLR,,0.00,WeatherDisplay:10.37,2013-04-26 04:01:00,
2013-04-25 22:06:00,48.2,32.3,29.86,NNE,22,2.6,3.5,54,0.00,CLR,,0.00,WeatherDisplay:10.37,2013-04-26 04:06:00,
2013-04-25 22:11:00,48.2,32.8,29.86,East,90,3.6,5.8,55,0.00,CLR,,0.00,WeatherDisplay:10.37,2013-04-26 04:11:00,
2013-04-25 22:16:00,47.8,32.4,29.86,North,360,3.6,4.6,55,0.00,CLR,,0.00,WeatherDisplay:10.37,2013-04-26 04:16:00,
2013-04-25 22:21:00,48.0,32.6,29.86,NE,45,3.8,4.6,55,0.00,CLR,,0.00,WeatherDisplay:10.37,2013-04-26 04:21:00,
2013-04-25 22:26:00,47.8,32.4,29.86,NNE,22,2.7,2.7,55,0.00,CLR,,0.00,WeatherDisplay:10.37,2013-04-26 04:26:00,
2013-04-25 22:31:00,47.1,32.2,29.86,NE,45,1.4,2.3,56,0.00,CLR,,0.00,WeatherDisplay:10.37,2013-04-26 04:31:00,
2013-04-25 22:36:00,46.6,32.6,29.86,ESE,112,1.7,2.3,58,0.00,CLR,,0.00,WeatherDisplay:10.37,2013-04-26 04:36:00,
2013-04-25 22:41:00,45.5,32.4,29.86,South,180,0.9,2.3,60,0.00,CLR,,0.00,WeatherDisplay:10.37,2013-04-26 04:41:00,
2013-04-25 22:46:00,44.6,32.4,29.86,SW,225,1.6,1.6,62,0.00,CLR,,0.00,WeatherDisplay:10.37,2013-04-26 04:46:00,
2013-04-25 22:51:00,44.4,32.2,29.86,SW,225,0.0,0.0,62,0.00,CLR,,0.00,WeatherDisplay:10.37,2013-04-26 04:51:00,
2013-04-25 22:56:00,43.3,32.3,29.86,SW,225,2.0,3.2,65,0.00,CLR,,0.00,WeatherDisplay:10.37,2013-04-26 04:56:00,
2013-04-25 23:01:00,42.3,32.1,29.86,SW,225,2.2,2.7,67,0.00,CLR,,0.00,WeatherDisplay:10.37,2013-04-26 05:01:00,
2013-04-25 23:06:00,41.5,31.7,29.87,SW,225,2.5,2.7,68,0.00,CLR,,0.00,WeatherDisplay:10.37,2013-04-26 05:06:00,
2013-04-25 23:11:00,41.4,31.6,29.87,West,270,0.0,0.0,68,0.00,CLR,,0.00,WeatherDisplay:10.37,2013-04-26 05:11:00,
2013-04-25 23:16:00,40.6,31.9,29.87,WSW,248,2.7,2.7,71,0.00,CLR,,0.00,WeatherDisplay:10.37,2013-04-26 05:16:00,
2013-04-25 23:21:00,40.5,31.5,29.87,WNW,292,0.7,1.1,70,0.00,CLR,,0.00,WeatherDisplay:10.37,2013-04-26 05:21:00,
2013-04-25 23:27:00,40.1,31.4,29.87,SW,225,0.3,0.0,71,0.00,CLR,,0.00,WeatherDisplay:10.37,2013-04-26 05:27:00,
2013-04-25 23:32:00,39.4,32.5,29.87,SW,225,2.2,2.3,76,0.00,CLR,,0.00,WeatherDisplay:10.37,2013-04-26 05:32:00,
2013-04-25 23:37:00,38.8,31.6,29.87,SW,225,2.1,2.2,75,0.00,CLR,,0.00,WeatherDisplay:10.37,2013-04-26 05:37:00,
2013-04-25 23:42:00,38.7,31.5,29.88,SSW,202,1.8,2.3,75,0.00,CLR,,0.00,WeatherDisplay:10.37,2013-04-26 05:42:00,
2013-04-25 23:47:00,38.3,30.7,29.88,WSW,248,1.6,1.7,74,0.00,CLR,,0.00,WeatherDisplay:10.37,2013-04-26 05:47:00,
2013-04-25 23:52:00,38.1,30.5,29.88,WSW,248,0.0,1.1,74,0.00,CLR,,0.00,WeatherDisplay:10.37,2013-04-26 05:52:00,
2013-04-25 23:57:00,37.9,31.3,29.88,SW,225,2.5,2.7,77,0.00,CLR,,0.00,WeatherDisplay:10.37,2013-04-26 05:57:00,